Location: *
(39.6167°S, 171.5333°W)
Time: 23:23:02
(UTC+00:00)

X-37B - Pass Details

Date: 13 May 2021
Orbit: 386 x 389 km, 45.0° (Epoch: 10 June)

Event Time Altitude Azimuth Distance (km) Brightness Sun altitude
Exits shadow 17:16:29 20° 227° (SW) 975 2.1 -12.8°
Maximum altitude 17:17:58 30° 182° (S) 749 1.9 -12.6°
Drops below altitude 10° 17:20:52 10° 118° (ESE) 1,438 4.2 -12.0°
Sets 17:23:07 0° 107° (ESE) 2,295 5.6 -11.6°
